TimeMST,TemperatureF,Dew PointF,Humidity,Sea Level PressureIn,VisibilityMPH,Wind Direction,Wind SpeedMPH,Gust SpeedMPH,PrecipitationIn,Events,Conditions,WindDirDegrees,DateUTC
12:16 AM,-13.0,-18.4,77,30.36,-9999.0,Calm,Calm,-,N/A,,Clear,0,2013-01-19 07:16:00
12:36 AM,-14.8,-18.4,84,30.36,-9999.0,Calm,Calm,-,N/A,,Clear,0,2013-01-19 07:36:00
12:56 AM,-14.8,-22.0,70,30.36,-9999.0,Calm,Calm,-,N/A,,Clear,0,2013-01-19 07:56:00
1:16 AM,-14.8,-22.0,70,30.37,-9999.0,West,3.5,-,N/A,,Scattered Clouds,270,2013-01-19 08:16:00
1:36 AM,-16.6,-23.8,70,30.37,-9999.0,NE,3.5,-,N/A,,Scattered Clouds,40,2013-01-19 08:36:00
1:55 AM,-16.6,-23.8,70,30.37,-9999.0,WSW,3.5,-,N/A,,Clear,240,2013-01-19 08:55:00
2:16 AM,-16.6,-23.8,70,30.40,-9999.0,Calm,Calm,-,N/A,,Clear,0,2013-01-19 09:16:00
2:36 AM,-18.4,-23.8,76,30.40,-9999.0,Calm,Calm,-,N/A,,Clear,0,2013-01-19 09:36:00
2:56 AM,-18.4,-25.6,70,30.41,-9999.0,Calm,Calm,-,N/A,,Clear,0,2013-01-19 09:56:00
3:16 AM,-16.6,-23.8,70,30.41,-9999.0,East,3.5,-,N/A,,Clear,90,2013-01-19 10:16:00
3:36 AM,-16.6,-22.0,76,30.41,-9999.0,WSW,6.9,-,N/A,,Clear,250,2013-01-19 10:36:00
3:56 AM,-16.6,-23.8,70,30.42,-9999.0,ENE,4.6,-,N/A,,Clear,70,2013-01-19 10:56:00
4:16 AM,-16.6,-23.8,70,30.42,-9999.0,ENE,5.8,-,N/A,,Clear,70,2013-01-19 11:16:00
4:36 AM,-16.6,-25.6,64,30.43,-9999.0,Calm,Calm,-,N/A,,Clear,0,2013-01-19 11:36:00
4:56 AM,-16.6,-22.0,76,30.43,-9999.0,Calm,Calm,-,N/A,,Clear,0,2013-01-19 11:56:00
5:16 AM,-16.6,-23.8,70,30.43,-9999.0,Calm,Calm,-,N/A,,Clear,0,2013-01-19 12:16:00
5:36 AM,-18.4,-25.6,70,30.43,-9999.0,Calm,Calm,-,N/A,,Clear,0,2013-01-19 12:36:00
5:56 AM,-18.4,-25.6,70,30.44,-9999.0,Calm,Calm,-,N/A,,Clear,0,2013-01-19 12:56:00
6:16 AM,-18.4,-25.6,70,30.46,-9999.0,Calm,Calm,-,N/A,,Clear,0,2013-01-19 13:16:00
6:36 AM,-18.4,-23.8,76,30.47,-9999.0,Calm,Calm,-,N/A,,Clear,0,2013-01-19 13:36:00
6:56 AM,-18.4,-25.6,70,30.47,-9999.0,Calm,Calm,-,N/A,,Clear,0,2013-01-19 13:56:00
7:16 AM,-18.4,-25.6,70,30.47,-9999.0,Calm,Calm,-,N/A,,Clear,0,2013-01-19 14:16:00
7:36 AM,-22.0,-27.4,76,30.49,-9999.0,Calm,Calm,-,N/A,,Clear,0,2013-01-19 14:36:00
7:56 AM,-18.4,-27.4,63,30.49,-9999.0,Calm,Calm,-,N/A,,Clear,0,2013-01-19 14:56:00
8:16 AM,-18.4,-25.6,70,30.50,-9999.0,Calm,Calm,-,N/A,Snow,Light Snow,0,2013-01-19 15:16:00
8:36 AM,-18.4,-25.6,70,30.51,-9999.0,Calm,Calm,-,N/A,Snow,Light Snow,0,2013-01-19 15:36:00
8:56 AM,-14.8,-22.0,70,30.52,-9999.0,Calm,Calm,-,N/A,,Clear,0,2013-01-19 15:56:00
9:16 AM,-14.8,-22.0,70,30.52,-9999.0,Calm,Calm,-,N/A,,Clear,0,2013-01-19 16:16:00
9:36 AM,-9.4,-18.4,65,30.53,-9999.0,Calm,Calm,-,N/A,,Clear,0,2013-01-19 16:36:00
9:56 AM,-9.4,-16.6,71,30.54,-9999.0,SSW,3.5,-,N/A,,Clear,210,2013-01-19 16:56:00
10:16 AM,-7.6,-16.6,65,30.54,-9999.0,Calm,Calm,-,N/A,,Clear,0,2013-01-19 17:16:00
10:36 AM,-5.8,-14.8,65,30.53,-9999.0,Calm,Calm,-,N/A,,Clear,0,2013-01-19 17:36:00
10:56 AM,-5.8,-14.8,65,30.52,-9999.0,Calm,Calm,-,N/A,,Clear,0,2013-01-19 17:56:00
11:16 AM,-2.2,-13.0,60,30.51,-9999.0,Calm,Calm,-,N/A,,Clear,0,2013-01-19 18:16:00
11:35 AM,-2.2,-13.0,60,30.51,-9999.0,Calm,Calm,-,N/A,,Clear,0,2013-01-19 18:35:00
11:56 AM,-0.4,-11.2,60,30.49,-9999.0,Calm,Calm,-,N/A,,Clear,0,2013-01-19 18:56:00
12:16 PM,1.4,-9.4,61,30.48,-9999.0,Calm,Calm,-,N/A,,Clear,0,2013-01-19 19:16:00
12:36 PM,3.2,-7.6,61,30.47,-9999.0,Calm,Calm,-,N/A,,Clear,0,2013-01-19 19:36:00
12:56 PM,3.2,-7.6,61,30.45,-9999.0,Calm,Calm,-,N/A,,Clear,0,2013-01-19 19:56:00
1:16 PM,3.2,-7.6,61,30.45,-9999.0,Calm,Calm,-,N/A,,Clear,0,2013-01-19 20:16:00
1:36 PM,5.0,-5.8,61,30.44,-9999.0,Calm,Calm,-,N/A,,Clear,0,2013-01-19 20:36:00
1:56 PM,5.0,-5.8,61,30.43,-9999.0,Calm,Calm,-,N/A,,Clear,0,2013-01-19 20:56:00
2:16 PM,8.6,-4.0,57,30.43,-9999.0,Calm,Calm,-,N/A,,Clear,0,2013-01-19 21:16:00
2:36 PM,8.6,-4.0,57,30.42,-9999.0,Calm,Calm,-,N/A,,Clear,0,2013-01-19 21:36:00
2:56 PM,8.6,-4.0,57,30.42,-9999.0,Calm,Calm,-,N/A,,Clear,0,2013-01-19 21:56:00
3:16 PM,8.6,-4.0,57,30.42,-9999.0,Calm,Calm,-,N/A,,Clear,0,2013-01-19 22:16:00
3:36 PM,8.6,-2.2,62,30.42,-9999.0,Calm,Calm,-,N/A,,Clear,0,2013-01-19 22:36:00
3:56 PM,8.6,-4.0,57,30.42,-9999.0,Calm,Calm,-,N/A,,Clear,0,2013-01-19 22:56:00
4:16 PM,8.6,-4.0,57,30.42,-9999.0,Calm,Calm,-,N/A,,Clear,0,2013-01-19 23:16:00
4:35 PM,6.8,-2.2,67,30.42,-9999.0,Calm,Calm,-,N/A,,Clear,0,2013-01-19 23:35:00
4:56 PM,5.0,-4.0,66,30.42,-9999.0,Calm,Calm,-,N/A,,Clear,0,2013-01-19 23:56:00
5:16 PM,3.2,-5.8,66,30.42,-9999.0,Calm,Calm,-,N/A,,Clear,0,2013-01-20 00:16:00
5:36 PM,-0.4,-5.8,78,30.42,-9999.0,Calm,Calm,-,N/A,,Clear,0,2013-01-20 00:36:00
5:56 PM,-2.2,-7.6,78,30.42,-9999.0,Calm,Calm,-,N/A,,Clear,0,2013-01-20 00:56:00
6:16 PM,-2.2,-7.6,78,30.42,-9999.0,Calm,Calm,-,N/A,,Clear,0,2013-01-20 01:16:00
6:36 PM,-2.2,-7.6,78,30.42,-9999.0,Calm,Calm,-,N/A,,Clear,0,2013-01-20 01:36:00
6:56 PM,-2.2,-7.6,78,30.43,-9999.0,Calm,Calm,-,N/A,,Clear,0,2013-01-20 01:56:00
7:16 PM,-4.0,-9.4,78,30.43,-9999.0,Calm,Calm,-,N/A,,Clear,0,2013-01-20 02:16:00
7:36 PM,-5.8,-9.4,84,30.43,-9999.0,Calm,Calm,-,N/A,,Clear,0,2013-01-20 02:36:00
7:56 PM,-5.8,-11.2,77,30.43,-9999.0,Calm,Calm,-,N/A,,Clear,0,2013-01-20 02:56:00
8:16 PM,-5.8,-9.4,84,30.43,-9999.0,Calm,Calm,-,N/A,,Clear,0,2013-01-20 03:16:00
8:36 PM,-7.6,-13.0,77,30.43,-9999.0,Calm,Calm,-,N/A,,Clear,0,2013-01-20 03:36:00
8:55 PM,-7.6,-13.0,77,30.42,-9999.0,Calm,Calm,-,N/A,,Clear,0,2013-01-20 03:55:00
9:16 PM,-7.6,-13.0,77,30.43,-9999.0,West,3.5,-,N/A,,Clear,270,2013-01-20 04:16:00
9:36 PM,-9.4,-14.8,77,30.43,-9999.0,Calm,Calm,-,N/A,,Clear,0,2013-01-20 04:36:00
9:56 PM,-9.4,-14.8,77,30.43,-9999.0,Calm,Calm,-,N/A,,Clear,0,2013-01-20 04:56:00
10:16 PM,-9.4,-14.8,77,30.42,-9999.0,ENE,3.5,-,N/A,,Clear,70,2013-01-20 05:16:00
10:35 PM,-9.4,-14.8,77,30.42,-9999.0,Calm,Calm,-,N/A,Snow,Light Snow,0,2013-01-20 05:35:00
10:56 PM,-9.4,-14.8,77,30.42,-9999.0,Calm,Calm,-,N/A,,Clear,0,2013-01-20 05:56:00
11:16 PM,-9.4,-14.8,77,30.41,-9999.0,Calm,Calm,-,N/A,,Clear,0,2013-01-20 06:16:00
11:36 PM,-11.2,-16.6,77,30.41,-9999.0,Calm,Calm,-,N/A,,Clear,0,2013-01-20 06:36:00
11:56 PM,-13.0,-18.4,77,30.40,-9999.0,Calm,Calm,-,N/A,,Clear,0,2013-01-20 06:56:00